Osceola Municipal, IA

11:34 PM CDT on June 24, 2017 (GMT -0500)
Osceola Municipal

Weather History for KI75 - April, 2014

Change the Weather History Date:

Wednesday, April 16, 2014

  Actual Average (KCNC) Record (KCNC)
Temperature  
Mean Temperature 50 °F -  
Max Temperature 62 °F 65 °F 86 °F (1964)
Min Temperature 37 °F 41 °F 20 °F (1962)
Degree Days  
Heating Degree Days 16    
Moisture  
Dew Point 30 °F    
Average Humidity 49    
Maximum Humidity 80    
Minimum Humidity 31    
Precipitation  
Precipitation 0.00 in - - ()
Sea Level Pressure  
Sea Level Pressure 29.88 in    
Wind  
Wind Speed 18 mph (South)    
Max Wind Speed 29 mph    
Max Gust Speed 40 mph    
Visibility 10 miles    
Events      
Averages and records for this station are not official NWS values.
T = Trace of Precipitation, MM = Missing Value Source: NWS Daily Summary

Daily Weather History Graph

Daily Weather History Graph

Search for Another Location

Airport or City:

Trip Planner

Search our weather history database for the weather conditions in past years. The results will help you decide how hot, cold, wet, or windy it might be!

Date:

Astronomy

Apr. 16, 2014 Rise Set
Actual Time 6:34 AM CDT 7:55 PM CDT
Civil Twilight 6:05 AM CDT 8:24 PM CDT
Nautical Twilight 5:31 AM CDT 8:58 PM CDT
Astronomical Twilight 4:54 AM CDT 9:35 PM CDT
Moon 9:41 PM CDT (4/16) 7:21 AM CDT (4/16)
Length of Visible Light 14h 19m
Length of Day
13h 21m
Full, 98% of the Moon is Illuminated
Apr 16
Full
Apr 22
Last Quarter
Apr 29
New
May 6
First Quarter
May 14
Full

Hourly Weather History & Observations

Time (CDT) Temp. Windchill Dew Point Humidity Pressure Visibility Wind Dir Wind Speed Gust Speed Precip Events Conditions
12:15 AM 38.3 °F 30.5 °F 28.2 °F 67% 29.98 in 10.0 mi SSE 12.7 mph 19.6 mph N/A   Clear
12:35 AM 37.8 °F 30.2 °F 28.4 °F 69% 29.98 in 10.0 mi SSE 11.5 mph - N/A   Clear
12:55 AM 37.6 °F 30.0 °F 28.4 °F 69% 29.97 in 10.0 mi SE 11.5 mph - N/A   Clear
1:15 AM 38.3 °F 31.4 °F 28.4 °F 68% 29.96 in 10.0 mi SSE 10.4 mph - N/A   Clear
1:35 AM 39.2 °F 31.6 °F 28.4 °F 65% 29.96 in 10.0 mi SSE 12.7 mph - N/A   Clear
1:55 AM 39.4 °F 30.7 °F 28.2 °F 64% 29.95 in 10.0 mi SSE 16.1 mph - N/A   Clear
2:15 AM 40.1 °F 32.0 °F 27.7 °F 61% 29.94 in 10.0 mi SSE 15.0 mph 23.0 mph N/A   Clear
2:35 AM 40.5 °F 31.8 °F 27.0 °F 59% 29.94 in 10.0 mi SSE 17.3 mph 24.2 mph N/A   Clear
2:55 AM 40.5 °F 31.8 °F 26.4 °F 57% 29.94 in 10.0 mi SSE 17.3 mph 23.0 mph N/A   Clear
3:15 AM 40.5 °F 32.1 °F 26.1 °F 57% 29.93 in 10.0 mi SSE 16.1 mph 25.3 mph N/A   Clear
3:35 AM 40.5 °F 31.8 °F 25.7 °F 56% 29.93 in 10.0 mi SSE 17.3 mph 23.0 mph N/A   Clear
3:55 AM 40.6 °F 32.3 °F 25.9 °F 56% 29.93 in 10.0 mi SSE 16.1 mph 25.3 mph N/A   Clear
4:15 AM 40.3 °F 31.0 °F 26.1 °F 57% 29.92 in 10.0 mi SSE 19.6 mph 24.2 mph N/A   Clear
4:35 AM 40.5 °F 31.5 °F 26.1 °F 57% 29.92 in 10.0 mi SSE 18.4 mph 23.0 mph N/A   Clear
5:15 AM 40.5 °F 30.9 °F 25.9 °F 56% 29.91 in 10.0 mi SSE 20.7 mph 25.3 mph N/A   Clear
5:35 AM 40.1 °F 30.7 °F 25.7 °F 56% 29.91 in 10.0 mi SSE 19.6 mph 24.2 mph N/A   Clear
5:55 AM 40.1 °F 31.0 °F 25.5 °F 56% 29.91 in 10.0 mi SSE 18.4 mph 26.5 mph N/A   Clear
6:15 AM 39.4 °F 30.4 °F 25.5 °F 58% 29.91 in 10.0 mi SSE 17.3 mph 23.0 mph N/A   Clear
6:35 AM 39.4 °F 30.4 °F 25.3 °F 57% 29.91 in 10.0 mi SSE 17.3 mph 24.2 mph N/A   Clear
6:55 AM 39.6 °F 30.0 °F 25.5 °F 57% 29.91 in 10.0 mi SSE 19.6 mph 27.6 mph N/A   Clear
7:15 AM 40.6 °F 31.2 °F 25.5 °F 55% 29.91 in 10.0 mi SSE 20.7 mph 31.1 mph N/A   Clear
7:35 AM 41.5 °F 32.1 °F 25.7 °F 53% 29.91 in 10.0 mi SSE 21.9 mph 27.6 mph N/A   Clear
7:55 AM 42.1 °F 32.8 °F 26.1 °F 53% 29.91 in 10.0 mi SSE 21.9 mph 28.8 mph N/A   Clear
8:15 AM 43.2 °F 33.8 °F 26.8 °F 52% 29.91 in 10.0 mi SSE 24.2 mph 32.2 mph N/A   Clear
8:35 AM 44.8 °F 36.2 °F 27.5 °F 51% 29.91 in 10.0 mi SSE 23.0 mph 31.1 mph N/A   Clear
8:55 AM 46.2 °F 38.3 °F 27.9 °F 49% 29.91 in 10.0 mi South 21.9 mph 31.1 mph N/A   Clear
9:15 AM 47.3 °F - 28.4 °F 48% 29.91 in 10.0 mi South 20.7 mph 27.6 mph N/A   Clear
9:35 AM 48.7 °F - 28.4 °F 45% 29.91 in 10.0 mi South 19.6 mph 32.2 mph N/A   Clear
9:55 AM 50.2 °F - 29.3 °F 45% 29.91 in 10.0 mi South 24.2 mph 32.2 mph N/A   Clear
10:15 AM 51.6 °F - 29.3 °F 42% 29.90 in 10.0 mi SSE 26.5 mph 32.2 mph N/A   Clear
10:35 AM 52.7 °F - 29.8 °F 42% 29.90 in 10.0 mi SSE 23.0 mph 32.2 mph N/A   Clear
10:55 AM 53.8 °F - 30.7 °F 41% 29.90 in 10.0 mi South 24.2 mph 29.9 mph N/A   Clear
11:15 AM 53.2 °F - 30.6 °F 42% 29.90 in 7.0 mi South 23.0 mph 33.4 mph N/A   Clear
11:35 AM 54.7 °F - 31.5 °F 41% 29.89 in 10.0 mi South 23.0 mph 33.4 mph N/A   Clear
11:55 AM 56.5 °F - 29.7 °F 36% 29.87 in 10.0 mi South 26.5 mph 36.8 mph N/A   Clear
12:15 PM 58.1 °F - 30.4 °F 35% 29.87 in 10.0 mi SSE 28.8 mph 34.5 mph N/A   Clear
12:35 PM 58.8 °F - 29.8 °F 33% 29.86 in 10.0 mi SSE 23.0 mph 34.5 mph N/A   Clear
1:15 PM 59.0 °F - 29.3 °F 32% 29.83 in 10.0 mi SSE 27.6 mph 39.1 mph N/A   Clear
1:35 PM 58.1 °F - 29.7 °F 34% 29.83 in 10.0 mi South 27.6 mph 36.8 mph N/A   Clear
1:55 PM 59.5 °F - 29.8 °F 32% 29.81 in 10.0 mi SSE 24.2 mph 36.8 mph N/A   Clear
2:15 PM 59.2 °F - 31.5 °F 35% 29.81 in 10.0 mi SSE 21.9 mph 35.7 mph N/A   Clear
2:35 PM 60.8 °F - 31.1 °F 33% 29.82 in 10.0 mi South 23.0 mph 33.4 mph N/A   Clear
2:55 PM 61.7 °F - 31.8 °F 33% 29.81 in 10.0 mi SSE 26.5 mph 36.8 mph N/A   Clear
3:15 PM 61.2 °F - 30.7 °F 32% 29.81 in 10.0 mi South 23.0 mph 40.3 mph N/A   Clear
3:35 PM 61.7 °F - 31.6 °F 32% 29.81 in 10.0 mi South 27.6 mph 39.1 mph N/A   Scattered Clouds
3:55 PM 62.6 °F - 31.5 °F 31% 29.81 in 10.0 mi South 27.6 mph 39.1 mph N/A   Mostly Cloudy
4:15 PM 62.1 °F - 30.7 °F 31% 29.81 in 10.0 mi South 26.5 mph 35.7 mph N/A   Overcast
4:35 PM 61.2 °F - 31.8 °F 33% 29.80 in 10.0 mi South 20.7 mph 33.4 mph N/A   Overcast
4:55 PM 61.0 °F - 30.9 °F 32% 29.81 in 10.0 mi South 20.7 mph 32.2 mph N/A   Overcast
5:15 PM 60.8 °F - 30.7 °F 32% 29.80 in 10.0 mi SSW 21.9 mph 34.5 mph N/A   Overcast
5:35 PM 61.2 °F - 31.6 °F 33% 29.79 in 10.0 mi South 21.9 mph 27.6 mph N/A   Mostly Cloudy
5:55 PM 60.8 °F - 30.4 °F 32% 29.79 in 10.0 mi SSW 20.7 mph 32.2 mph N/A   Scattered Clouds
6:15 PM 60.8 °F - 30.9 °F 32% 29.79 in 10.0 mi South 23.0 mph 29.9 mph N/A   Scattered Clouds
6:35 PM 61.5 °F - 31.3 °F 32% 29.79 in 10.0 mi South 20.7 mph 29.9 mph N/A   Scattered Clouds
6:55 PM 60.4 °F - 31.1 °F 33% 29.79 in 10.0 mi South 16.1 mph 26.5 mph N/A   Clear
7:15 PM 59.0 °F - 31.8 °F 36% 29.79 in 10.0 mi South 16.1 mph - N/A   Clear
7:35 PM 58.3 °F - 31.5 °F 36% 29.79 in 10.0 mi South 17.3 mph 23.0 mph N/A   Scattered Clouds
7:55 PM 58.1 °F - 31.6 °F 37% 29.79 in 10.0 mi South 18.4 mph 25.3 mph N/A   Overcast
8:15 PM 57.4 °F - 32.0 °F 38% 29.82 in 10.0 mi South 15.0 mph 20.7 mph N/A   Overcast
8:35 PM 57.2 °F - 32.0 °F 38% 29.84 in 10.0 mi SSW 17.3 mph 26.5 mph N/A   Mostly Cloudy
8:55 PM 50.4 °F - 34.7 °F 55% 29.87 in 10.0 mi West 11.5 mph - N/A   Overcast
9:15 PM 48.6 °F - 34.3 °F 58% 29.89 in 10.0 mi West 12.7 mph - N/A   Overcast
9:35 PM 47.5 °F - 34.0 °F 59% 29.90 in 10.0 mi West 16.1 mph - N/A   Overcast
9:55 PM 46.0 °F 39.0 °F 34.5 °F 64% 29.91 in 10.0 mi West 17.3 mph - N/A   Overcast
10:15 PM 44.4 °F 36.9 °F 34.2 °F 67% 29.93 in 10.0 mi West 17.3 mph - N/A   Overcast
10:35 PM 42.8 °F 34.5 °F 34.0 °F 71% 29.95 in 10.0 mi West 18.4 mph 26.5 mph N/A   Overcast
10:55 PM 41.9 °F 33.7 °F 34.3 °F 75% 29.96 in 10.0 mi West 17.3 mph 23.0 mph N/A   Overcast
11:15 PM 41.2 °F 32.1 °F 34.5 °F 77% 29.97 in 10.0 mi West 19.6 mph 24.2 mph N/A   Overcast
11:35 PM 41.0 °F 32.2 °F 34.7 °F 78% 29.99 in 10.0 mi West 18.4 mph 27.6 mph N/A   Overcast
11:55 PM 39.7 °F 30.9 °F 34.2 °F 80% 30.00 in 10.0 mi West 17.3 mph 29.9 mph N/A   Overcast